Regional Weather Roundup
Issued by NWS Jackson, KY

Home | Current Version | Previous Version | Graphics & Text | Print | Product List | Glossary On
Versions: 1 2 3 4 5 6 7 8 9 10 11 12 13 14 15 16 17 18 19 20 21 22 23 24 25 26 27 28 29 30 31 32 33 34 35 36 37 38 39 40 41 42 43 44 45 46 47 48 49 50
000
ASUS43 KJKL 291710
RWRJKL

EAST KENTUCKY HOURLY WEATHER ROUNDUP
NATIONAL WEATHER SERVICE JACKSON KY
100 PM EDT FRI APR 29 2016

NOTE: "FAIR" INDICATES FEW OR NO CLOUDS BELOW 12,000 FEET WITH
NO SIGNIFICANT WEATHER AND/OR OBSTRUCTIONS TO VISIBILITY.

* THESE REPORTS ARE NOT UNDER NWS QUALITY CONTROL AND MAY NOT
  REPORT WEATHER SUCH AS PRECIPITATION AND FOG.

KYZ079-080-083-085-087-088-110-112-115-119-120-291800
...EASTERN KENTUCKY...

CITY           SKY/WX    TMP DP  RH WIND       PRES   REMARKS
JACKSON        SUNNY     73  51  46 VRB7      30.02F
LONDON         SUNNY     74  50  42 VRB3      30.04F
SOMERSET*      MOSUNNY   72  50  46 CALM      30.05S
MONTICELLO*    MOSUNNY   74  54  49 N14       30.06S
WILLIAMSBURG*  SUNNY     73  50  43 CALM      30.04S
MIDDLESBORO*   SUNNY     78  45  30 NW6       30.03F
HARLAN APT*      N/A     75  41  29 W9        30.04F
HAZARD APT*    SUNNY     75  48  38 W7        30.02F
BLACK MTN*       N/A     68  45  42 W3          N/A
PIKE CO APT*     N/A     72  51  47 SW7       30.02F
BIG SANDY APT* SUNNY     73  51  46 NW5       30.02S
MOREHEAD APT*  MOSUNNY   70  52  52 SW10G17   30.04F
$$

KYZ035-036-041-042-044-050-067-078-099-291800
...CENTRAL KENTUCKY...

CITY           SKY/WX    TMP DP  RH WIND       PRES   REMARKS
MT STERLING*   MOSUNNY   68  54  60 NW7       30.04F
FLEMING/MASON* MOSUNNY   67  53  59 W10       30.03F
DANVILLE*      SUNNY     70  54  56 N8        30.05S
RICHMOND*      SUNNY     68  52  56 NW5       30.04F
LEXINGTON      SUNNY     67  50  54 VRB3      30.04F
FRANKFORT      SUNNY     68  46  45 VRB3      30.03F
LOUISVILLE     CLOUDY    69  45  41 N6        30.05R
LEBANON*         N/A     68  54  60 NW6       30.06R
BOWLING GREEN  CLOUDY    73  56  54 CALM      30.04R
$$

KYZ091>093-OHZ055-061-077-WVZ005-015-034-035-042-291800
...SOUTHERN OHIO/WEST VIRGINIA...

CITY           SKY/WX    TMP DP  RH WIND       PRES   REMARKS
COVINGTON      PTSUNNY   66  49  54 NW10G20   30.04S
COLUMBUS       CLOUDY    52  48  87 CALM      30.02F
DAYTON         CLOUDY    54  50  86 NW8       30.06R
WILMINGTON     PTSUNNY   59  53  80 NW9       30.03S HAZE
HUNTINGTON       N/A     72  51  47 W12G18    29.99F
CHARLESTON       N/A     72  48  42 NW12G20   29.98F
PINEVILLE*       N/A     74  41  30 MISG      30.05F
BECKLEY          N/A     69  44  40 W12       30.02F
$$

VAZ002-007-008-TNZ017-027-036-066-071-291800
...SOUTHWEST VIRGINIA/EAST TENNESSEE...

CITY           SKY/WX    TMP DP  RH WIND       PRES   REMARKS
WISE*            N/A     72  36  26 W13       30.08F
BRISTOL        MOSUNNY   75  49  39 VRB5      30.04F
MORRISTOWN*    SUNNY     75  48  38 VRB3      30.03F
KNOXVILLE      MOSUNNY   79  47  32 E3        30.01F
OAK RIDGE      SUNNY     79  47  32 VRB5      30.03F
CROSSVILLE     MOSUNNY   77  41  27 N6        30.07R
NASHVILLE      CLOUDY    78  51  38 SW5       30.03R
$$

...KEY TO REMARKS...
VSB - VISIBILITY IN MILES
WCI - WIND CHILL INDEX
HX  - HEAT INDEX

$$



USA.gov is the U.S. government's official web portal to all federal, state and local government web resources and services.